MZN144 RJTT-RJBB

Flight info

Callsign MZN144
Flight time 0h 49m
Altitude 30000
Route LAXAS Y56 TOHME Y54 KOHWA Y544 DUBKA
Aircraft B738/M-SDE2E3FGHIRWXY/LB1

Departure

Time 2026-02-21 22:34
Airport Tokyo Haneda International Airport (RJTT)

Arrival

Time 2026-02-21 23:23
Airport Kansai International Airport (RJBB)
Time Latitude Longitude Altitude Speed Heading
2026-02-21 22:03 35.54229 139.77349 22 ft 0 kts 150°
2026-02-21 22:21 35.54230 139.77348 22 ft 1 kts 150°
2026-02-21 22:22 35.54245 139.77338 23 ft 3 kts 150°
2026-02-21 22:22 35.54263 139.77326 25 ft 3 kts 150°
2026-02-21 22:22 35.54280 139.77313 23 ft 3 kts 150°
2026-02-21 22:22 35.54298 139.77301 22 ft 3 kts 150°
2026-02-21 22:23 35.54307 139.77294 21 ft 0 kts 150°
2026-02-21 22:26 35.54305 139.77297 21 ft 1 kts 133°
2026-02-21 22:26 35.54310 139.77306 20 ft 3 kts 46°
2026-02-21 22:27 35.54337 139.77343 20 ft 9 kts 55°
2026-02-21 22:27 35.54383 139.77439 22 ft 16 kts 60°
2026-02-21 22:27 35.54446 139.77565 22 ft 17 kts 46°
2026-02-21 22:27 35.54558 139.77547 20 ft 18 kts 330°
2026-02-21 22:28 35.54672 139.77466 21 ft 19 kts 330°
2026-02-21 22:28 35.54783 139.77387 23 ft 19 kts 329°
2026-02-21 22:28 35.54898 139.77305 24 ft 19 kts 329°
2026-02-21 22:28 35.55009 139.77227 28 ft 18 kts 330°
2026-02-21 22:29 35.55130 139.77141 24 ft 22 kts 329°
2026-02-21 22:29 35.55265 139.77038 24 ft 24 kts 311°
2026-02-21 22:29 35.55221 139.76857 21 ft 24 kts 240°
2026-02-21 22:29 35.55139 139.76684 23 ft 23 kts 240°
2026-02-21 22:30 35.55050 139.76524 29 ft 23 kts 218°
2026-02-21 22:30 35.54920 139.76412 25 ft 23 kts 214°
2026-02-21 22:30 35.54825 139.76290 25 ft 18 kts 287°
2026-02-21 22:30 35.54859 139.76229 23 ft 0 kts 305°
2026-02-21 22:31 35.54861 139.76225 25 ft 1 kts 305°
2026-02-21 22:31 35.54875 139.76201 27 ft 8 kts 305°
2026-02-21 22:31 35.54946 139.76163 26 ft 15 kts 31°
2026-02-21 22:31 35.55008 139.76220 30 ft 2 kts 34°
2026-02-21 22:32 35.55009 139.76220 29 ft 0 kts 34°
2026-02-21 22:33 35.55049 139.76255 27 ft 31 kts 35°
2026-02-21 22:33 35.55444 139.76592 27 ft 105 kts 36°
2026-02-21 22:34 35.56184 139.77224 49 ft 163 kts 35°
2026-02-21 22:34 35.57220 139.78064 54 ft 192 kts 33°
2026-02-21 22:34 35.58248 139.79029 1573 ft 164 kts 47°
2026-02-21 22:34 35.58768 139.80258 2961 ft 172 kts 86°
2026-02-21 22:35 35.58461 139.81730 3634 ft 190 kts 119°
2026-02-21 22:35 35.57826 139.83289 3930 ft 218 kts 116°
2026-02-21 22:35 35.57198 139.85096 4238 ft 239 kts 113°
2026-02-21 22:35 35.56575 139.87069 4651 ft 260 kts 112°
2026-02-21 22:36 35.55916 139.89231 5251 ft 272 kts 111°
2026-02-21 22:36 35.55265 139.91409 6241 ft 273 kts 112°
2026-02-21 22:36 35.54399 139.93499 6966 ft 280 kts 133°
2026-02-21 22:36 35.52802 139.94808 7688 ft 282 kts 164°
2026-02-21 22:37 35.50905 139.94953 8488 ft 281 kts 194°
2026-02-21 22:37 35.49010 139.94347 9373 ft 281 kts 194°
2026-02-21 22:37 35.47047 139.93860 10186 ft 287 kts 193°
2026-02-21 22:37 35.45154 139.93033 10510 ft 305 kts 216°
2026-02-21 22:38 35.43581 139.91180 10724 ft 326 kts 229°
2026-02-21 22:38 35.41994 139.89009 10899 ft 349 kts 229°
2026-02-21 22:38 35.40355 139.86763 11149 ft 366 kts 229°
2026-02-21 22:38 35.38630 139.84427 11722 ft 373 kts 229°
2026-02-21 22:39 35.36871 139.82070 12443 ft 375 kts 229°
2026-02-21 22:39 35.35098 139.79709 13186 ft 378 kts 229°
2026-02-21 22:39 35.33303 139.77328 13927 ft 382 kts 229°
2026-02-21 22:39 35.31489 139.74927 14594 ft 386 kts 229°
2026-02-21 22:40 35.29558 139.72611 15268 ft 391 kts 224°
2026-02-21 22:40 35.27477 139.70439 15977 ft 395 kts 222°
2026-02-21 22:40 35.25340 139.68291 16662 ft 399 kts 221°
2026-02-21 22:40 35.23186 139.66122 17274 ft 403 kts 222°
2026-02-21 22:41 35.21019 139.63909 17915 ft 408 kts 223°
2026-02-21 22:41 35.18843 139.61664 18550 ft 411 kts 223°
2026-02-21 22:41 35.16657 139.59392 19109 ft 415 kts 223°
2026-02-21 22:41 35.14452 139.57094 19658 ft 418 kts 223°
2026-02-21 22:42 35.12234 139.54785 20214 ft 421 kts 223°
2026-02-21 22:42 35.08016 139.49827 21238 ft 421 kts 240°
2026-02-21 22:42 35.06787 139.46608 21769 ft 418 kts 256°
2026-02-21 22:43 35.06164 139.43150 22316 ft 418 kts 261°
2026-02-21 22:43 35.05624 139.39640 22793 ft 422 kts 261°
2026-02-21 22:43 35.05077 139.36109 23249 ft 425 kts 261°
2026-02-21 22:43 35.04506 139.32556 23720 ft 428 kts 261°
2026-02-21 22:44 35.03912 139.28986 24129 ft 430 kts 260°
2026-02-21 22:44 35.03307 139.25407 24559 ft 432 kts 260°
2026-02-21 22:44 35.02700 139.21812 24978 ft 433 kts 260°
2026-02-21 22:44 35.02100 139.18210 25367 ft 434 kts 261°
2026-02-21 22:45 35.01500 139.14591 25737 ft 436 kts 261°
2026-02-21 22:45 35.00898 139.10957 26107 ft 438 kts 261°
2026-02-21 22:45 35.00291 139.07309 26481 ft 439 kts 260°
2026-02-21 22:45 34.99681 139.03656 26867 ft 440 kts 260°
2026-02-21 22:46 34.99069 139.00002 27319 ft 439 kts 261°
2026-02-21 22:46 34.98594 138.96348 27855 ft 435 kts 266°
2026-02-21 22:46 34.98377 138.92737 28440 ft 431 kts 268°
2026-02-21 22:46 34.98213 138.89105 29000 ft 428 kts 268°
2026-02-21 22:47 34.98059 138.85489 29511 ft 426 kts 268°
2026-02-21 22:47 34.97899 138.81882 30010 ft 425 kts 268°
2026-02-21 22:47 34.97726 138.78276 30166 ft 429 kts 268°
2026-02-21 22:48 34.97351 138.71020 30178 ft 427 kts 267°
2026-02-21 22:48 34.96962 138.63851 30173 ft 423 kts 267°
2026-02-21 22:49 34.96567 138.56683 30187 ft 424 kts 267°
2026-02-21 22:49 34.96167 138.49495 30198 ft 426 kts 267°
2026-02-21 22:50 34.95763 138.42288 30170 ft 426 kts 267°
2026-02-21 22:50 34.95354 138.35074 30164 ft 427 kts 267°
2026-02-21 22:51 34.94733 138.24252 30166 ft 427 kts 267°
2026-02-21 22:51 34.94314 138.17032 30154 ft 427 kts 266°
2026-02-21 22:52 34.93892 138.09811 30170 ft 427 kts 266°
2026-02-21 22:52 34.93540 138.03809 30169 ft 427 kts 266°
2026-02-21 22:53 34.93113 137.96593 30165 ft 427 kts 266°
2026-02-21 22:53 34.92681 137.89375 30181 ft 427 kts 266°
2026-02-21 22:54 34.92247 137.82162 30176 ft 427 kts 266°
2026-02-21 22:54 34.91825 137.74946 30176 ft 427 kts 266°
2026-02-21 22:55 34.91260 137.67744 30170 ft 428 kts 260°
2026-02-21 22:55 34.89416 137.60849 30184 ft 429 kts 251°
2026-02-21 22:56 34.87306 137.54041 30177 ft 429 kts 251°
2026-02-21 22:56 34.85240 137.47213 30170 ft 430 kts 251°
2026-02-21 22:57 34.83258 137.40349 30166 ft 430 kts 252°
2026-02-21 22:57 34.81330 137.33520 30166 ft 429 kts 252°
2026-02-21 22:58 34.79378 137.26656 30163 ft 429 kts 252°
2026-02-21 22:58 34.77414 137.19798 30163 ft 429 kts 252°
2026-02-21 22:59 34.75445 137.12946 30174 ft 429 kts 252°
2026-02-21 22:59 34.73475 137.06103 30163 ft 429 kts 252°
2026-02-21 23:00 34.71501 136.99263 30161 ft 429 kts 252°
2026-02-21 23:00 34.69255 136.92557 30170 ft 429 kts 245°
2026-02-21 23:01 34.66482 136.86126 30177 ft 429 kts 244°
2026-02-21 23:01 34.63692 136.79715 30172 ft 429 kts 244°
2026-02-21 23:02 34.60933 136.73293 30172 ft 429 kts 244°
2026-02-21 23:02 34.58190 136.66869 30176 ft 429 kts 244°
2026-02-21 23:03 34.55446 136.60446 30176 ft 429 kts 244°
2026-02-21 23:03 34.52700 136.54029 30171 ft 429 kts 244°
2026-02-21 23:04 34.49947 136.47610 30169 ft 429 kts 244°
2026-02-21 23:04 34.47207 136.41236 30170 ft 429 kts 244°
2026-02-21 23:05 34.45804 136.37975 29701 ft 435 kts 244°
2026-02-21 23:05 34.44423 136.34769 28912 ft 433 kts 244°
2026-02-21 23:05 34.43033 136.31546 27984 ft 431 kts 244°
2026-02-21 23:05 34.41642 136.28324 27019 ft 432 kts 243°
2026-02-21 23:06 34.40247 136.25093 25990 ft 434 kts 243°
2026-02-21 23:06 34.38846 136.21850 25150 ft 433 kts 243°
2026-02-21 23:06 34.37452 136.18629 24375 ft 431 kts 243°
2026-02-21 23:06 34.36065 136.15420 23581 ft 429 kts 243°
2026-02-21 23:07 34.34897 136.12117 22673 ft 426 kts 251°
2026-02-21 23:07 34.34173 136.08640 21591 ft 428 kts 258°
2026-02-21 23:07 34.33583 136.05118 20720 ft 425 kts 258°
2026-02-21 23:07 34.32991 136.01634 19900 ft 421 kts 258°
2026-02-21 23:08 34.32391 135.98196 19161 ft 415 kts 257°
2026-02-21 23:08 34.31785 135.94802 18437 ft 409 kts 257°
2026-02-21 23:08 34.31182 135.91462 17642 ft 403 kts 257°
2026-02-21 23:08 34.30587 135.88178 16929 ft 397 kts 257°
2026-02-21 23:09 34.29999 135.84945 16250 ft 390 kts 257°
2026-02-21 23:09 34.29420 135.81765 15548 ft 385 kts 257°
2026-02-21 23:09 34.28849 135.78627 14914 ft 378 kts 257°
2026-02-21 23:09 34.28285 135.75540 14264 ft 374 kts 257°
2026-02-21 23:10 34.27725 135.72487 13575 ft 370 kts 257°
2026-02-21 23:10 34.27171 135.69468 12878 ft 366 kts 257°
2026-02-21 23:10 34.26624 135.66485 12207 ft 362 kts 257°
2026-02-21 23:10 34.26079 135.63523 11469 ft 360 kts 257°
2026-02-21 23:11 34.25538 135.60583 10910 ft 354 kts 257°
2026-02-21 23:11 34.25018 135.57751 10789 ft 337 kts 257°
2026-02-21 23:11 34.24527 135.55086 10654 ft 322 kts 256°
2026-02-21 23:11 34.24050 135.52495 10511 ft 309 kts 256°
2026-02-21 23:12 34.23591 135.50018 10381 ft 296 kts 256°
2026-02-21 23:12 34.23149 135.47638 10271 ft 285 kts 256°
2026-02-21 23:12 34.22725 135.45340 10152 ft 275 kts 256°
2026-02-21 23:12 34.22314 135.43128 10034 ft 265 kts 256°
2026-02-21 23:13 34.21916 135.40982 9797 ft 261 kts 256°
2026-02-21 23:13 34.21520 135.38852 9508 ft 259 kts 256°
2026-02-21 23:13 34.21128 135.36738 9201 ft 257 kts 256°
2026-02-21 23:13 34.20739 135.34642 8912 ft 254 kts 256°
2026-02-21 23:14 34.20354 135.32566 8614 ft 253 kts 256°
2026-02-21 23:14 34.19970 135.30503 8319 ft 251 kts 256°
2026-02-21 23:14 34.19589 135.28452 8033 ft 249 kts 256°
2026-02-21 23:14 34.19210 135.26419 7750 ft 248 kts 256°
2026-02-21 23:15 34.18833 135.24394 7460 ft 246 kts 256°
2026-02-21 23:15 34.18457 135.22382 7165 ft 245 kts 256°
2026-02-21 23:15 34.18085 135.20381 6891 ft 243 kts 256°
2026-02-21 23:15 34.17713 135.18392 6605 ft 242 kts 256°
2026-02-21 23:16 34.17342 135.16411 6295 ft 242 kts 256°
2026-02-21 23:16 34.16989 135.14429 5986 ft 242 kts 260°
2026-02-21 23:16 34.17174 135.12406 5661 ft 249 kts 286°
2026-02-21 23:16 34.18083 135.10609 5372 ft 257 kts 308°
2026-02-21 23:17 34.19428 135.09169 5088 ft 260 kts 316°
2026-02-21 23:17 34.20850 135.07819 4776 ft 260 kts 316°
2026-02-21 23:17 34.22274 135.06464 4459 ft 261 kts 316°
2026-02-21 23:17 34.23684 135.05103 4262 ft 256 kts 316°
2026-02-21 23:18 34.25057 135.03772 4133 ft 249 kts 315°
2026-02-21 23:18 34.26485 135.02656 4030 ft 245 kts 336°
2026-02-21 23:18 34.28166 135.02527 3786 ft 246 kts 12°
2026-02-21 23:18 34.29712 135.03337 3536 ft 240 kts 32°
2026-02-21 23:19 34.31090 135.04423 3260 ft 233 kts 36°
2026-02-21 23:19 34.32395 135.05491 2964 ft 220 kts 36°
2026-02-21 23:19 34.33509 135.06674 2689 ft 207 kts 52°
2026-02-21 23:19 34.34390 135.07953 2542 ft 187 kts 54°
2026-02-21 23:20 34.35172 135.09102 2431 ft 169 kts 56°
2026-02-21 23:20 34.35902 135.10195 2236 ft 167 kts 56°
2026-02-21 23:20 34.36626 135.11280 2009 ft 164 kts 56°
2026-02-21 23:20 34.37337 135.12347 1793 ft 162 kts 56°
2026-02-21 23:21 34.38040 135.13402 1575 ft 160 kts 55°
2026-02-21 23:21 34.38734 135.14443 1354 ft 157 kts 54°
2026-02-21 23:21 34.39405 135.15448 1142 ft 150 kts 54°
2026-02-21 23:21 34.40057 135.16422 957 ft 146 kts 54°
2026-02-21 23:22 34.40676 135.17347 757 ft 137 kts 51°
2026-02-21 23:22 34.41261 135.18232 521 ft 134 kts 51°
2026-02-21 23:22 34.41841 135.19095 363 ft 134 kts 53°
2026-02-21 23:22 34.42425 135.19997 168 ft 138 kts 53°
2026-02-21 23:23 34.43031 135.20872 23 ft 129 kts 51°
2026-02-21 23:23 34.43523 135.21610 25 ft 95 kts 51°
2026-02-21 23:23 34.43864 135.22118 27 ft 60 kts 51°
2026-02-21 23:23 34.44050 135.22416 27 ft 35 kts 61°
2026-02-21 23:24 34.44108 135.22668 26 ft 21 kts 82°
2026-02-21 23:24 34.44028 135.22723 25 ft 14 kts 234°
2026-02-21 23:24 34.43970 135.22620 23 ft 15 kts 230°
2026-02-21 23:24 34.43906 135.22524 23 ft 15 kts 231°
2026-02-21 23:25 34.43829 135.22419 25 ft 19 kts 213°
2026-02-21 23:25 34.43704 135.22494 24 ft 24 kts 140°
2026-02-21 23:25 34.43559 135.22635 23 ft 29 kts 142°
2026-02-21 23:25 34.43389 135.22801 24 ft 33 kts 140°
2026-02-21 23:26 34.43211 135.22974 22 ft 28 kts 141°
2026-02-21 23:26 34.43050 135.23130 22 ft 25 kts 141°
2026-02-21 23:26 34.42902 135.23274 24 ft 29 kts 142°
2026-02-21 23:26 34.42733 135.23440 22 ft 33 kts 140°
2026-02-21 23:27 34.42588 135.23578 22 ft 21 kts 154°
2026-02-21 23:27 34.42465 135.23489 21 ft 25 kts 231°
2026-02-21 23:27 34.42386 135.23353 21 ft 13 kts 275°
2026-02-21 23:27 34.42431 135.23302 24 ft 5 kts 322°
2026-02-21 23:28 34.42444 135.23291 22 ft 1 kts 322°
2026-02-21 23:28 34.42445 135.23290 22 ft 0 kts 322°